| time (UTC) | temp F | wind direction | speed MPH | gust MPH | rain 1hr in | rain 24hr in | rain mn in | humidity % | barometer mb |
| 20260905174647 | 84 | 205 | 4.0 | 5.0 | 0.00 | 0.00 | 1.03 | 84 | 1013.2 |
| 20260905174147 | 84 | 209 | 5.0 | 5.0 | 0.00 | 0.00 | 1.03 | 86 | 1013.2 |
| 20260905173654 | 83 | 157 | 0.0 | 4.0 | 0.00 | 0.00 | 1.03 | 89 | 1013.2 |
| 20260905173147 | 82 | 223 | 2.0 | 5.0 | 0.00 | 0.00 | 1.03 | 91 | 1013.2 |
| 20260905172646 | 81 | 251 | 4.0 | 4.0 | 0.00 | 0.00 | 1.03 | 91 | 1013.5 |
| 20260905172146 | 81 | 285 | 3.0 | 4.0 | 0.00 | 0.00 | 1.03 | 91 | 1013.5 |
| 20260905171647 | 82 | 291 | 3.0 | 5.0 | 0.00 | 0.00 | 1.03 | 93 | 1013.5 |
| 20260905171147 | 81 | 335 | 2.0 | 4.0 | 0.00 | 0.00 | 1.03 | 95 | 1013.5 |
| 20260905170647 | 79 | 355 | 0.0 | 3.0 | 0.00 | 0.00 | 1.03 | 97 | 1013.5 |
| 20260905170146 | 80 | 315 | 0.0 | 3.0 | 0.00 | 0.00 | 1.03 | 99 | 1013.5 |
| 20260905165646 | 79 | 355 | 0.0 | 3.0 | 0.02 | 0.00 | 1.03 | 99 | 1013.9 |
| 20260905165146 | 79 | 339 | 2.0 | 3.0 | 0.09 | 0.00 | 1.03 | 99 | 1013.9 |
| 20260905164647 | 78 | 268 | 4.0 | 5.0 | 0.21 | 0.00 | 1.03 | 99 | 1013.9 |
| 20260905164147 | 78 | 262 | 2.0 | 4.0 | 0.33 | 0.00 | 1.02 | 98 | 1013.9 |
| 20260905163646 | 77 | 82 | 0.0 | 7.0 | 0.69 | 0.00 | 0.99 | 99 | 1013.9 |
| 20260905163146 | 77 | 58 | 5.0 | 5.0 | 1.23 | 0.00 | 0.95 | 98 | 1014.2 |
| 20260905162646 | 77 | 133 | 3.0 | 5.0 | 1.16 | 0.00 | 0.85 | 98 | 1014.2 |
| 20260905162146 | 77 | 176 | 4.0 | 7.0 | 1.70 | 0.00 | 0.75 | 98 | 1014.2 |
| 20260905161646 | 77 | 163 | 5.0 | 6.0 | 2.03 | 0.00 | 0.59 | 97 | 1014.2 |
| 20260905161146 | 77 | 186 | 6.0 | 9.0 | 1.49 | 0.00 | 0.44 | 97 | 1014.2 |
| 20260905160646 | 78 | 201 | 9.0 | 15.0 | 0.90 | 0.00 | 0.28 | 96 | 1014.2 |
| 20260905160146 | 78 | 216 | 6.0 | 10.0 | 0.47 | 0.00 | 0.18 | 94 | 1014.2 |
| 20260905155647 | 79 | 173 | 9.0 | 10.0 | 0.33 | 0.00 | 0.13 | 95 | 1013.9 |
| 20260905155148 | 79 | 138 | 4.0 | 9.0 | 0.50 | 0.00 | 0.10 | 95 | 1014.2 |
| 20260905154646 | 80 | 141 | 6.0 | 6.0 | 0.31 | 0.00 | 0.06 | 92 | 1013.9 |
| 20260905154147 | 80 | 193 | 4.0 | 9.0 | 0.07 | 0.00 | 0.01 | 91 | 1013.5 |
| 20260905153646 | 81 | 153 | 4.0 | 6.0 | 0.02 | 0.00 | 0.00 | 89 | 1013.5 |
| 20260905153147 | 81 | 129 | 2.0 | 7.0 | 0.00 | 0.00 | 0.00 | 88 | 1013.9 |
| 20260905152646 | 81 | 57 | 3.0 | 6.0 | 0.00 | 0.00 | 0.00 | 89 | 1013.5 |
| 20260905152147 | 81 | 175 | 3.0 | 7.0 | 0.00 | 0.00 | 0.00 | 88 | 1013.5 |
| 20260905151646 | 82 | 180 | 5.0 | 7.0 | 0.00 | 0.00 | 0.00 | 86 | 1013.5 |
| 20260905151147 | 85 | 186 | 5.0 | 5.0 | 0.00 | 0.00 | 0.00 | 84 | 1013.5 |
| 20260905150646 | 85 | 194 | 1.0 | 3.0 | 0.00 | 0.00 | 0.00 | 79 | 1013.5 |
| 20260905150147 | 85 | 269 | 3.0 | 5.0 | 0.00 | 0.00 | 0.00 | 80 | 1013.5 |
| 20260905145646 | 86 | 332 | 4.0 | 6.0 | 0.00 | 0.00 | 0.00 | 78 | 1013.5 |
| 20260905145147 | 86 | 358 | 3.0 | 5.0 | 0.00 | 0.00 | 0.00 | 78 | 1013.5 |
| 20260905144647 | 85 | 58 | 4.0 | 5.0 | 0.00 | 0.00 | 0.00 | 78 | 1013.2 |
| 20260905144146 | 86 | 21 | 2.0 | 3.0 | 0.00 | 0.00 | 0.00 | 80 | 1013.5 |
| 20260905143646 | 85 | 359 | 3.0 | 3.0 | 0.00 | 0.00 | 0.00 | 81 | 1013.5 |
| 20260905143146 | 84 | 330 | 3.0 | 4.0 | 0.00 | 0.00 | 0.00 | 82 | 1013.5 |
| 20260905142647 | 84 | 58 | 0.0 | 5.0 | 0.00 | 0.00 | 0.00 | 83 | 1013.5 |
| 20260905142147 | 84 | 333 | 2.0 | 6.0 | 0.00 | 0.00 | 0.00 | 84 | 1013.5 |
| 20260905141647 | 84 | 350 | 4.0 | 5.0 | 0.00 | 0.00 | 0.00 | 84 | 1013.5 |
| 20260905141147 | 85 | 305 | 6.0 | 8.0 | 0.00 | 0.00 | 0.00 | 83 | 1013.5 |
| 20260905140646 | 85 | 356 | 5.0 | 6.0 | 0.00 | 0.00 | 0.00 | 82 | 1013.5 |
| 20260905140146 | 85 | 7 | 2.0 | 5.0 | 0.00 | 0.00 | 0.00 | 83 | 1013.5 |
| 20260905135646 | 85 | 311 | 2.0 | 6.0 | 0.00 | 0.00 | 0.00 | 83 | 1013.5 |
| 20260905135146 | 84 | 24 | 5.0 | 5.0 | 0.00 | 0.00 | 0.00 | 85 | 1013.5 |
| 20260905134648 | 84 | 288 | 7.0 | 8.0 | 0.00 | 0.00 | 0.00 | 85 | 1013.5 |
| 20260905134147 | 84 | 360 | 5.0 | 6.0 | 0.00 | 0.00 | 0.00 | 86 | 1013.5 |
| 20260905133647 | 84 | 339 | 4.0 | 8.0 | 0.00 | 0.00 | 0.00 | 85 | 1013.2 |
| 20260905133146 | 84 | 305 | 3.0 | 6.0 | 0.00 | 0.00 | 0.00 | 83 | 1013.5 |
| 20260905132647 | 84 | 48 | 0.0 | 4.0 | 0.00 | 0.00 | 0.00 | 85 | 1013.5 |
| 20260905132146 | 83 | 296 | 4.0 | 5.0 | 0.00 | 0.00 | 0.00 | 87 | 1013.5 |
| 20260905131647 | 83 | 294 | 3.0 | 4.0 | 0.00 | 0.00 | 0.00 | 88 | 1013.2 |
| 20260905131147 | 82 | 275 | 3.0 | 4.0 | 0.00 | 0.00 | 0.00 | 87 | 1013.5 |
| 20260905130646 | 82 | 314 | 2.0 | 3.0 | 0.00 | 0.00 | 0.00 | 87 | 1013.5 |
| 20260905130146 | 82 | 337 | 3.0 | 4.0 | 0.00 | 0.00 | 0.00 | 87 | 1013.5 |
| 20260905125647 | 82 | 338 | 1.0 | 3.0 | 0.00 | 0.00 | 0.00 | 88 | 1013.5 |
| 20260905125147 | 81 | 105 | 1.0 | 4.0 | 0.00 | 0.00 | 0.00 | 91 | 1013.5 |
| 20260905124647 | 80 | 281 | 1.0 | 3.0 | 0.00 | 0.00 | 0.00 | 92 | 1013.2 |
| 20260905124146 | 80 | 213 | 2.0 | 4.0 | 0.00 | 0.00 | 0.00 | 93 | 1013.2 |
| 20260905123646 | 79 | 342 | 1.0 | 3.0 | 0.00 | 0.00 | 0.00 | 93 | 1013.5 |
| 20260905123146 | 79 | 351 | 1.0 | 4.0 | 0.00 | 0.00 | 0.00 | 94 | 1013.2 |
| 20260905122647 | 79 | 341 | 2.0 | 3.0 | 0.00 | 0.00 | 0.00 | 95 | 1013.5 |
| 20260905122146 | 78 | 350 | 2.0 | 3.0 | 0.00 | 0.00 | 0.00 | 95 | 1013.2 |
| 20260905121646 | 78 | 307 | 0.0 | 3.0 | 0.00 | 0.00 | 0.00 | 95 | 1013.5 |
| 20260905121146 | 78 | 346 | 3.0 | 3.0 | 0.00 | 0.00 | 0.00 | 95 | 1013.5 |
| 20260905120646 | 78 | 333 | 3.0 | 3.0 | 0.00 | 0.00 | 0.00 | 94 | 1013.2 |
| 20260905120146 | 78 | 171 | 1.0 | 3.0 | 0.00 | 0.00 | 0.00 | 94 | 1013.2 |
| 20260905115646 | 78 | 292 | 2.0 | 4.0 | 0.00 | 0.00 | 0.00 | 94 | 1013.2 |
| 20260905115147 | 78 | 119 | 2.0 | 3.0 | 0.00 | 0.00 | 0.00 | 94 | 1013.2 |
| 20260905114646 | 78 | 211 | 2.0 | 4.0 | 0.00 | 0.00 | 0.00 | 94 | 1013.2 |
| 20260905114146 | 78 | 220 | 1.0 | 4.0 | 0.00 | 0.00 | 0.00 | 94 | 1013.2 |
| 20260905113647 | 78 | 167 | 1.0 | 3.0 | 0.00 | 0.00 | 0.00 | 94 | 1013.2 |
| 20260905113146 | 78 | 234 | 2.0 | 3.0 | 0.00 | 0.00 | 0.00 | 94 | 1012.9 |
| 20260905112646 | 78 | 175 | 3.0 | 4.0 | 0.00 | 0.00 | 0.00 | 94 | 1012.9 |
| 20260905112146 | 78 | 230 | 2.0 | 3.0 | 0.00 | 0.00 | 0.00 | 93 | 1012.5 |
| 20260905111650 | 78 | 253 | 2.0 | 4.0 | 0.00 | 0.00 | 0.00 | 93 | 1012.5 |
| 20260905111146 | 78 | 274 | 0.0 | 3.0 | 0.00 | 0.00 | 0.00 | 94 | 1012.5 |
| 20260905110646 | 78 | 237 | 2.0 | 3.0 | 0.00 | 0.00 | 0.00 | 94 | 1012.2 |
| 20260905110147 | 78 | 23 | 1.0 | 3.0 | 0.00 | 0.00 | 0.00 | 94 | 1012.5 |
| 20260905105646 | 78 | 189 | 2.0 | 3.0 | 0.00 | 0.00 | 0.00 | 94 | 1012.2 |
| 20260905105146 | 78 | 282 | 2.0 | 4.0 | 0.00 | 0.00 | 0.00 | 94 | 1012.2 |
| 20260905104646 | 78 | 220 | 0.0 | 3.0 | 0.00 | 0.00 | 0.00 | 94 | 1012.2 |
| 20260905104146 | 78 | 81 | 0.0 | 0.0 | 0.00 | 0.00 | 0.00 | 94 | 1012.2 |
| 20260905103647 | 78 | 89 | 0.0 | 0.0 | 0.00 | 0.00 | 0.00 | 94 | 1012.2 |
| 20260905103147 | 78 | 360 | 0.0 | 1.0 | 0.00 | 0.00 | 0.00 | 93 | 1012.2 |
| 20260905102646 | 79 | 320 | 1.0 | 1.0 | 0.00 | 0.00 | 0.00 | 93 | 1012.2 |
| 20260905102146 | 79 | 284 | 2.0 | 2.0 | 0.00 | 0.00 | 0.00 | 93 | 1012.5 |
| 20260905101648 | 79 | 238 | 1.0 | 1.0 | 0.00 | 0.00 | 0.00 | 93 | 1012.5 |
| 20260905101146 | 79 | 212 | 0.0 | 1.0 | 0.00 | 0.00 | 0.00 | 93 | 1012.2 |
| 20260905100646 | 79 | 200 | 0.0 | 2.0 | 0.00 | 0.00 | 0.00 | 92 | 1012.5 |
| 20260905100146 | 79 | 205 | 0.0 | 2.0 | 0.00 | 0.00 | 0.00 | 92 | 1012.5 |
| 20260905095646 | 79 | 283 | 2.0 | 3.0 | 0.00 | 0.00 | 0.00 | 92 | 1012.5 |
| 20260905095147 | 79 | 308 | 2.0 | 2.0 | 0.00 | 0.00 | 0.00 | 92 | 1012.5 |
| 20260905094646 | 79 | 308 | 1.0 | 2.0 | 0.00 | 0.00 | 0.00 | 92 | 1012.5 |
| 20260905094146 | 79 | 20 | 0.0 | 2.0 | 0.00 | 0.00 | 0.00 | 93 | 1012.5 |
| 20260905093647 | 79 | 311 | 0.0 | 2.0 | 0.00 | 0.00 | 0.00 | 93 | 1012.5 |
| 20260905093146 | 79 | 309 | 0.0 | 1.0 | 0.00 | 0.00 | 0.00 | 93 | 1012.5 |
| 20260905092647 | 79 | 248 | 0.0 | 1.0 | 0.00 | 0.00 | 0.00 | 93 | 1012.5 |
| 20260905092147 | 79 | 141 | 0.0 | 0.0 | 0.00 | 0.00 | 0.00 | 92 | 1012.5 |
| 20260905091647 | 79 | 279 | 0.0 | 2.0 | 0.00 | 0.00 | 0.00 | 93 | 1012.5 |
| 20260905091146 | 79 | 333 | 0.0 | 2.0 | 0.00 | 0.00 | 0.00 | 92 | 1012.5 |
| 20260905090648 | 79 | 294 | 1.0 | 2.0 | 0.00 | 0.00 | 0.00 | 92 | 1012.5 |
| 20260905090147 | 79 | 276 | 0.0 | 2.0 | 0.00 | 0.00 | 0.00 | 93 | 1012.5 |
| 20260905085646 | 79 | 216 | 2.0 | 3.0 | 0.00 | 0.00 | 0.00 | 93 | 1012.2 |
| 20260905085146 | 79 | 197 | 2.0 | 2.0 | 0.00 | 0.00 | 0.00 | 93 | 1012.5 |
| 20260905084646 | 79 | 227 | 2.0 | 2.0 | 0.00 | 0.00 | 0.00 | 93 | 1012.5 |
| 20260905084147 | 79 | 256 | 0.0 | 2.0 | 0.00 | 0.00 | 0.00 | 93 | 1012.2 |
| 20260905083646 | 79 | 284 | 0.0 | 0.0 | 0.00 | 0.00 | 0.00 | 92 | 1012.5 |
| 20260905083146 | 79 | 322 | 0.0 | 1.0 | 0.00 | 0.00 | 0.00 | 93 | 1012.5 |
| 20260905082647 | 79 | 284 | 1.0 | 2.0 | 0.00 | 0.00 | 0.00 | 93 | 1012.5 |
| 20260905082146 | 79 | 287 | 1.0 | 2.0 | 0.00 | 0.00 | 0.00 | 93 | 1012.2 |
| 20260905081646 | 79 | 234 | 0.0 | 1.0 | 0.00 | 0.00 | 0.00 | 93 | 1012.2 |
| 20260905081146 | 79 | 207 | 0.0 | 1.0 | 0.00 | 0.00 | 0.00 | 93 | 1012.2 |
| 20260905080647 | 79 | 294 | 2.0 | 2.0 | 0.00 | 0.00 | 0.00 | 93 | 1012.2 |
| 20260905080147 | 79 | 275 | 2.0 | 2.0 | 0.00 | 0.00 | 0.00 | 93 | 1011.9 |
| 20260905075647 | 79 | 230 | 0.0 | 2.0 | 0.00 | 0.00 | 0.00 | 93 | 1012.2 |
| 20260905075147 | 79 | 221 | 1.0 | 2.0 | 0.00 | 0.00 | 0.00 | 93 | 1012.2 |
| 20260905074647 | 79 | 236 | 1.0 | 3.0 | 0.00 | 0.00 | 0.00 | 93 | 1012.2 |
| 20260905074146 | 79 | 326 | 0.0 | 2.0 | 0.00 | 0.00 | 0.00 | 93 | 1012.5 |
| 20260905073646 | 79 | 282 | 0.0 | 2.0 | 0.00 | 0.00 | 0.00 | 93 | 1012.2 |
| 20260905073146 | 78 | 224 | 0.0 | 2.0 | 0.00 | 0.00 | 0.00 | 93 | 1012.2 |
| 20260905072646 | 79 | 230 | 2.0 | 3.0 | 0.00 | 0.00 | 0.00 | 93 | 1012.2 |
| 20260905071742 | 79 | 278 | 1.0 | 4.0 | 0.00 | 0.00 | 0.00 | 93 | 1012.2 |
| 20260905071146 | 79 | 235 | 2.0 | 3.0 | 0.00 | 0.00 | 0.00 | 94 | 1012.5 |
| 20260905070646 | 79 | 277 | 1.0 | 4.0 | 0.00 | 0.00 | 0.00 | 94 | 1012.2 |
| 20260905070146 | 79 | 284 | 0.0 | 3.0 | 0.00 | 0.00 | 0.00 | 94 | 1012.2 |
| 20260905065646 | 79 | 208 | 2.0 | 3.0 | 0.00 | 0.00 | 0.00 | 94 | 1012.2 |
| 20260905065146 | 79 | 218 | 2.0 | 4.0 | 0.00 | 0.00 | 0.00 | 94 | 1011.9 |
| 20260905064647 | 79 | 238 | 3.0 | 5.0 | 0.00 | 0.00 | 0.00 | 94 | 1012.2 |
| 20260905064147 | 79 | 190 | 5.0 | 5.0 | 0.00 | 0.00 | 0.00 | 93 | 1012.2 |
| 20260905063647 | 79 | 175 | 3.0 | 4.0 | 0.00 | 0.00 | 0.00 | 93 | 1011.9 |
| 20260905063146 | 79 | 196 | 3.0 | 3.0 | 0.00 | 0.00 | 0.00 | 93 | 1011.9 |
| 20260905062646 | 79 | 207 | 2.0 | 4.0 | 0.00 | 0.00 | 0.00 | 93 | 1012.2 |
| 20260905062146 | 79 | 232 | 2.0 | 3.0 | 0.00 | 0.00 | 0.00 | 93 | 1012.2 |
| 20260905061648 | 79 | 223 | 2.0 | 3.0 | 0.00 | 0.00 | 0.00 | 93 | 1012.2 |
| 20260905061146 | 80 | 240 | 2.0 | 3.0 | 0.00 | 0.00 | 0.00 | 92 | 1012.5 |
| 20260905060647 | 80 | 272 | 2.0 | 2.0 | 0.00 | 0.00 | 0.00 | 93 | 1012.5 |
| 20260905060147 | 80 | 280 | 1.0 | 2.0 | 0.00 | 0.00 | 0.00 | 93 | 1012.2 |
| 20260905055646 | 79 | 330 | 0.0 | 2.0 | 0.00 | 0.00 | 0.00 | 93 | 1012.5 |
| 20260905055147 | 80 | 304 | 0.0 | 2.0 | 0.00 | 0.00 | 0.00 | 93 | 1012.2 |
| 20260905054646 | 80 | 232 | 0.0 | 1.0 | 0.00 | 0.00 | 0.00 | 93 | 1012.2 |
| 20260905054146 | 80 | 224 | 0.0 | 2.0 | 0.00 | 0.00 | 0.00 | 93 | 1012.2 |
| 20260905053646 | 80 | 180 | 2.0 | 2.0 | 0.00 | 0.00 | 0.00 | 93 | 1012.2 |
| 20260905053146 | 80 | 213 | 1.0 | 3.0 | 0.00 | 0.00 | 0.00 | 93 | 1012.5 |
| 20260905052646 | 80 | 185 | 2.0 | 3.0 | 0.00 | 0.00 | 0.00 | 93 | 1012.9 |
| 20260905052147 | 80 | 188 | 2.0 | 3.0 | 0.00 | 0.00 | 0.00 | 93 | 1012.5 |
| 20260905051646 | 80 | 193 | 2.0 | 2.0 | 0.00 | 0.00 | 0.00 | 93 | 1012.9 |
| 20260905051146 | 80 | 160 | 2.0 | 3.0 | 0.00 | 0.00 | 0.00 | 94 | 1012.9 |
| 20260905050202 | 80 | 207 | 2.0 | 3.0 | 0.00 | 0.00 | 0.00 | 92 | 1012.9 |
| 20260905045646 | 80 | 208 | 2.0 | 3.0 | 0.00 | 0.00 | 0.36 | 92 | 1012.9 |
| 20260905045147 | 80 | 201 | 1.0 | 3.0 | 0.00 | 0.00 | 0.36 | 92 | 1012.9 |
| 20260905044646 | 80 | 225 | 0.0 | 3.0 | 0.00 | 0.00 | 0.36 | 92 | 1012.5 |
| 20260905044147 | 80 | 221 | 1.0 | 2.0 | 0.00 | 0.00 | 0.36 | 92 | 1012.9 |
| 20260905043646 | 80 | 223 | 1.0 | 3.0 | 0.00 | 0.00 | 0.36 | 92 | 1012.5 |
| 20260905043146 | 80 | 198 | 3.0 | 3.0 | 0.00 | 0.00 | 0.36 | 92 | 1012.5 |
| 20260905042647 | 81 | 214 | 1.0 | 2.0 | 0.00 | 0.00 | 0.36 | 91 | 1012.5 |
| 20260905042146 | 81 | 241 | 2.0 | 3.0 | 0.00 | 0.00 | 0.36 | 91 | 1012.5 |
| 20260905041646 | 81 | 190 | 1.0 | 2.0 | 0.00 | 0.00 | 0.36 | 91 | 1012.9 |
| 20260905041147 | 81 | 174 | 0.0 | 3.0 | 0.00 | 0.00 | 0.36 | 90 | 1012.9 |
| 20260905040646 | 81 | 125 | 0.0 | 2.0 | 0.00 | 0.00 | 0.36 | 90 | 1012.9 |
| 20260905040146 | 82 | 39 | 1.0 | 3.0 | 0.00 | 0.00 | 0.36 | 89 | 1012.9 |
| 20260905035646 | 82 | 360 | 0.0 | 3.0 | 0.00 | 0.00 | 0.36 | 88 | 1012.9 |
| 20260905035147 | 82 | 129 | 0.0 | 1.0 | 0.00 | 0.00 | 0.36 | 88 | 1012.9 |
| 20260905034647 | 81 | 154 | 0.0 | 0.0 | 0.00 | 0.00 | 0.36 | 88 | 1012.9 |
| 20260905034146 | 81 | 151 | 1.0 | 2.0 | 0.00 | 0.00 | 0.36 | 88 | 1013.2 |
| 20260905033646 | 81 | 176 | 2.0 | 2.0 | 0.00 | 0.00 | 0.36 | 88 | 1013.2 |
| 20260905033148 | 82 | 171 | 1.0 | 2.0 | 0.00 | 0.00 | 0.36 | 88 | 1012.9 |
| 20260905032647 | 82 | 149 | 0.0 | 3.0 | 0.00 | 0.00 | 0.36 | 88 | 1012.9 |
| 20260905032146 | 81 | 189 | 2.0 | 3.0 | 0.00 | 0.00 | 0.36 | 88 | 1012.9 |
| 20260905031646 | 82 | 180 | 3.0 | 4.0 | 0.00 | 0.00 | 0.36 | 87 | 1013.2 |
| 20260905031147 | 82 | 164 | 1.0 | 5.0 | 0.00 | 0.00 | 0.36 | 87 | 1013.5 |
| 20260905030646 | 82 | 174 | 5.0 | 6.0 | 0.00 | 0.00 | 0.36 | 87 | 1013.5 |
| 20260905030147 | 82 | 209 | 2.0 | 3.0 | 0.00 | 0.00 | 0.36 | 88 | 1013.5 |
| 20260905025647 | 82 | 194 | 2.0 | 3.0 | 0.00 | 0.00 | 0.36 | 87 | 1013.5 |
| 20260905025146 | 82 | 176 | 2.0 | 3.0 | 0.00 | 0.00 | 0.36 | 87 | 1013.5 |
| 20260905024646 | 82 | 174 | 3.0 | 3.0 | 0.00 | 0.00 | 0.36 | 87 | 1013.5 |
| 20260905024147 | 82 | 165 | 2.0 | 3.0 | 0.00 | 0.00 | 0.36 | 88 | 1013.5 |
| 20260905023647 | 82 | 180 | 2.0 | 3.0 | 0.00 | 0.00 | 0.36 | 88 | 1013.5 |
| 20260905023146 | 82 | 175 | 1.0 | 4.0 | 0.00 | 0.00 | 0.36 | 87 | 1013.5 |
| 20260905022646 | 82 | 240 | 1.0 | 2.0 | 0.00 | 0.00 | 0.36 | 88 | 1013.2 |
| 20260905022146 | 82 | 211 | 1.0 | 2.0 | 0.00 | 0.00 | 0.36 | 88 | 1013.5 |
| 20260905021646 | 82 | 183 | 1.0 | 4.0 | 0.00 | 0.00 | 0.36 | 87 | 1013.2 |
| 20260905021146 | 83 | 187 | 2.0 | 4.0 | 0.00 | 0.00 | 0.36 | 87 | 1013.2 |
| 20260905020646 | 83 | 212 | 2.0 | 4.0 | 0.00 | 0.00 | 0.36 | 86 | 1013.2 |
| 20260905020146 | 83 | 201 | 1.0 | 3.0 | 0.00 | 0.00 | 0.36 | 85 | 1013.2 |
| 20260905015647 | 83 | 214 | 2.0 | 3.0 | 0.00 | 0.00 | 0.36 | 84 | 1013.2 |
| 20260905015146 | 83 | 187 | 2.0 | 2.0 | 0.00 | 0.00 | 0.36 | 84 | 1012.9 |
| 20260905014646 | 83 | 171 | 2.0 | 2.0 | 0.00 | 0.00 | 0.36 | 84 | 1012.9 |
| 20260905014146 | 83 | 180 | 1.0 | 2.0 | 0.00 | 0.00 | 0.36 | 83 | 1013.2 |
| 20260905013646 | 83 | 117 | 0.0 | 2.0 | 0.00 | 0.00 | 0.36 | 83 | 1012.9 |
| 20260905013146 | 84 | 162 | 1.0 | 2.0 | 0.00 | 0.00 | 0.36 | 82 | 1012.9 |
| 20260905012646 | 84 | 121 | 1.0 | 3.0 | 0.00 | 0.00 | 0.36 | 82 | 1012.9 |
| 20260905012146 | 84 | 179 | 2.0 | 2.0 | 0.00 | 0.00 | 0.36 | 81 | 1012.9 |
| 20260905011646 | 84 | 60 | 0.0 | 2.0 | 0.00 | 0.00 | 0.36 | 82 | 1012.9 |
| 20260905011146 | 84 | 22 | 0.0 | 1.0 | 0.00 | 0.00 | 0.36 | 82 | 1012.9 |
| 20260905010646 | 84 | 174 | 2.0 | 3.0 | 0.00 | 0.00 | 0.36 | 82 | 1012.9 |
| 20260905010146 | 84 | 181 | 2.0 | 2.0 | 0.00 | 0.00 | 0.36 | 82 | 1012.9 |
| 20260905005646 | 83 | 187 | 1.0 | 3.0 | 0.00 | 0.00 | 0.36 | 82 | 1012.9 |
| 20260905005147 | 84 | 189 | 2.0 | 3.0 | 0.00 | 0.00 | 0.36 | 82 | 1012.9 |
| 20260905004647 | 84 | 206 | 2.0 | 3.0 | 0.00 | 0.00 | 0.36 | 82 | 1012.9 |
| 20260905004147 | 84 | 186 | 1.0 | 3.0 | 0.00 | 0.00 | 0.36 | 83 | 1013.2 |
| 20260905003646 | 84 | 165 | 2.0 | 4.0 | 0.00 | 0.00 | 0.36 | 82 | 1012.9 |
| 20260905003146 | 84 | 156 | 3.0 | 3.0 | 0.00 | 0.00 | 0.36 | 81 | 1012.5 |
| 20260905002647 | 84 | 179 | 3.0 | 4.0 | 0.00 | 0.00 | 0.36 | 81 | 1012.9 |
| 20260905002146 | 84 | 172 | 2.0 | 5.0 | 0.00 | 0.00 | 0.36 | 81 | 1012.9 |
| 20260905001646 | 84 | 174 | 2.0 | 5.0 | 0.00 | 0.00 | 0.36 | 81 | 1012.9 |
| 20260905001146 | 84 | 145 | 2.0 | 5.0 | 0.00 | 0.00 | 0.36 | 81 | 1012.9 |
| 20260905000646 | 84 | 154 | 3.0 | 4.0 | 0.00 | 0.00 | 0.36 | 80 | 1012.9 |
| 20260905000147 | 84 | 165 | 3.0 | 6.0 | 0.00 | 0.00 | 0.36 | 81 | 1012.9 |
| 20260904235646 | 85 | 165 | 4.0 | 4.0 | 0.00 | 0.00 | 0.36 | 80 | 1012.9 |
| 20260904235146 | 86 | 157 | 1.0 | 4.0 | 0.00 | 0.00 | 0.36 | 78 | 1012.9 |
| 20260904234646 | 86 | 37 | 2.0 | 3.0 | 0.00 | 0.00 | 0.36 | 76 | 1012.9 |
| 20260904234146 | 86 | 334 | 2.0 | 3.0 | 0.00 | 0.00 | 0.36 | 76 | 1012.9 |
| 20260904233646 | 87 | 3 | 3.0 | 5.0 | 0.00 | 0.00 | 0.36 | 75 | 1012.5 |
| 20260904233146 | 87 | 351 | 2.0 | 4.0 | 0.00 | 0.00 | 0.36 | 75 | 1012.5 |
| 20260904232647 | 87 | 312 | 3.0 | 5.0 | 0.00 | 0.00 | 0.36 | 75 | 1012.5 |
| 20260904232146 | 87 | 286 | 4.0 | 4.0 | 0.00 | 0.00 | 0.36 | 73 | 1012.5 |
| 20260904231647 | 87 | 5 | 1.0 | 4.0 | 0.00 | 0.00 | 0.36 | 73 | 1012.5 |
| 20260904231146 | 87 | 354 | 2.0 | 5.0 | 0.00 | 0.00 | 0.36 | 73 | 1012.5 |
| 20260904230647 | 87 | 352 | 2.0 | 5.0 | 0.00 | 0.00 | 0.36 | 73 | 1012.5 |
| 20260904230147 | 88 | 347 | 4.0 | 7.0 | 0.00 | 0.00 | 0.36 | 71 | 1012.9 |
| 20260904225647 | 88 | 39 | 2.0 | 5.0 | 0.00 | 0.00 | 0.36 | 71 | 1012.5 |
| 20260904225146 | 88 | 321 | 2.0 | 5.0 | 0.00 | 0.00 | 0.36 | 70 | 1012.5 |
| 20260904224646 | 88 | 307 | 3.0 | 4.0 | 0.00 | 0.00 | 0.36 | 70 | 1012.5 |
| 20260904224147 | 88 | 76 | 2.0 | 6.0 | 0.00 | 0.00 | 0.36 | 72 | 1012.2 |
| 20260904223646 | 87 | 25 | 4.0 | 9.0 | 0.00 | 0.00 | 0.36 | 72 | 1012.5 |
| 20260904223147 | 87 | 353 | 4.0 | 7.0 | 0.00 | 0.00 | 0.36 | 73 | 1012.5 |
| 20260904222647 | 88 | 356 | 5.0 | 7.0 | 0.00 | 0.00 | 0.36 | 71 | 1012.5 |
| 20260904222147 | 88 | 347 | 3.0 | 6.0 | 0.00 | 0.00 | 0.36 | 69 | 1012.2 |
| 20260904221646 | 88 | 355 | 3.0 | 7.0 | 0.00 | 0.00 | 0.36 | 71 | 1012.2 |
| 20260904221146 | 87 | 332 | 4.0 | 6.0 | 0.00 | 0.00 | 0.36 | 73 | 1012.2 |
| 20260904220647 | 87 | 25 | 5.0 | 9.0 | 0.00 | 0.00 | 0.36 | 73 | 1012.2 |
| 20260904220146 | 87 | 343 | 5.0 | 7.0 | 0.00 | 0.00 | 0.36 | 72 | 1012.2 |
| 20260904215647 | 88 | 18 | 3.0 | 8.0 | 0.00 | 0.00 | 0.36 | 71 | 1012.2 |
| 20260904215146 | 87 | 335 | 4.0 | 9.0 | 0.00 | 0.00 | 0.36 | 72 | 1012.5 |
| 20260904214647 | 87 | 312 | 6.0 | 9.0 | 0.00 | 0.00 | 0.36 | 73 | 1012.5 |
| 20260904214146 | 87 | 45 | 3.0 | 7.0 | 0.00 | 0.00 | 0.36 | 72 | 1012.5 |
| 20260904213646 | 87 | 45 | 4.0 | 10.0 | 0.00 | 0.00 | 0.36 | 71 | 1012.2 |
| 20260904213146 | 87 | 337 | 3.0 | 7.0 | 0.00 | 0.00 | 0.36 | 70 | 1012.2 |
| 20260904212646 | 88 | 358 | 5.0 | 8.0 | 0.00 | 0.00 | 0.36 | 70 | 1012.5 |
| 20260904212146 | 88 | 340 | 5.0 | 8.0 | 0.00 | 0.00 | 0.36 | 70 | 1012.5 |
| 20260904211647 | 88 | 35 | 3.0 | 7.0 | 0.00 | 0.00 | 0.36 | 68 | 1012.5 |
| 20260904211147 | 88 | 3 | 3.0 | 10.0 | 0.00 | 0.00 | 0.36 | 68 | 1012.5 |
| 20260904210646 | 88 | 345 | 5.0 | 8.0 | 0.00 | 0.00 | 0.36 | 69 | 1012.9 |
| 20260904210146 | 88 | 354 | 4.0 | 7.0 | 0.00 | 0.00 | 0.36 | 71 | 1012.5 |
| 20260904205647 | 87 | 353 | 3.0 | 9.0 | 0.00 | 0.00 | 0.36 | 71 | 1012.2 |
| 20260904205147 | 88 | 342 | 4.0 | 8.0 | 0.00 | 0.00 | 0.36 | 72 | 1012.2 |
| 20260904204646 | 88 | 336 | 4.0 | 7.0 | 0.00 | 0.00 | 0.36 | 72 | 1012.5 |
| 20260904204146 | 87 | 348 | 4.0 | 7.0 | 0.00 | 0.00 | 0.36 | 71 | 1012.5 |
| 20260904203646 | 87 | 354 | 5.0 | 9.0 | 0.00 | 0.00 | 0.36 | 71 | 1012.5 |
| 20260904203146 | 87 | 39 | 5.0 | 8.0 | 0.00 | 0.00 | 0.36 | 73 | 1012.5 |
| 20260904202646 | 87 | 11 | 5.0 | 8.0 | 0.00 | 0.00 | 0.36 | 73 | 1012.5 |
| 20260904202148 | 87 | 345 | 3.0 | 8.0 | 0.00 | 0.00 | 0.36 | 72 | 1012.9 |
| 20260904201647 | 88 | 31 | 5.0 | 8.0 | 0.00 | 0.00 | 0.36 | 70 | 1012.9 |
| 20260904201146 | 88 | 356 | 6.0 | 6.0 | 0.00 | 0.00 | 0.36 | 69 | 1012.9 |
| 20260904200647 | 88 | 61 | 7.0 | 9.0 | 0.00 | 0.00 | 0.36 | 70 | 1012.9 |
| 20260904200146 | 88 | 339 | 2.0 | 7.0 | 0.00 | 0.00 | 0.36 | 70 | 1012.9 |
| 20260904195647 | 87 | 338 | 3.0 | 5.0 | 0.00 | 0.00 | 0.36 | 72 | 1012.9 |
| 20260904195147 | 87 | 4 | 4.0 | 9.0 | 0.00 | 0.00 | 0.36 | 73 | 1013.2 |
| 20260904194646 | 87 | 52 | 2.0 | 8.0 | 0.00 | 0.00 | 0.36 | 73 | 1012.9 |
| 20260904194146 | 87 | 323 | 3.0 | 9.0 | 0.00 | 0.00 | 0.36 | 74 | 1013.2 |
| 20260904193646 | 87 | 46 | 7.0 | 9.0 | 0.00 | 0.00 | 0.36 | 73 | 1013.2 |
| 20260904193146 | 86 | 5 | 3.0 | 8.0 | 0.00 | 0.00 | 0.36 | 75 | 1013.5 |
| 20260904192647 | 87 | 53 | 7.0 | 11.0 | 0.00 | 0.00 | 0.36 | 74 | 1013.5 |
| 20260904192147 | 86 | 48 | 7.0 | 9.0 | 0.00 | 0.00 | 0.36 | 76 | 1013.5 |
| 20260904191648 | 87 | 42 | 7.0 | 10.0 | 0.00 | 0.00 | 0.36 | 75 | 1013.5 |
| 20260904191147 | 87 | 32 | 7.0 | 9.0 | 0.00 | 0.00 | 0.36 | 74 | 1013.5 |
| 20260904190647 | 87 | 354 | 3.0 | 9.0 | 0.00 | 0.00 | 0.36 | 76 | 1013.9 |
| 20260904190147 | 86 | 30 | 5.0 | 8.0 | 0.00 | 0.00 | 0.36 | 77 | 1013.9 |
| 20260904185646 | 86 | 350 | 5.0 | 9.0 | 0.00 | 0.00 | 0.36 | 78 | 1013.9 |
| 20260904185146 | 86 | 16 | 6.0 | 9.0 | 0.00 | 0.00 | 0.36 | 78 | 1013.9 |
| 20260904184646 | 86 | 36 | 7.0 | 11.0 | 0.00 | 0.00 | 0.36 | 79 | 1014.2 |
| 20260904184147 | 86 | 336 | 7.0 | 9.0 | 0.00 | 0.00 | 0.36 | 78 | 1014.2 |
| 20260904183647 | 86 | 359 | 4.0 | 10.0 | 0.00 | 0.00 | 0.36 | 77 | 1014.2 |
| 20260904183146 | 86 | 350 | 7.0 | 11.0 | 0.00 | 0.00 | 0.36 | 79 | 1014.2 |
| 20260904182646 | 87 | 22 | 6.0 | 7.0 | 0.00 | 0.00 | 0.36 | 77 | 1014.2 |
| 20260904182147 | 86 | 20 | 5.0 | 10.0 | 0.00 | 0.00 | 0.36 | 76 | 1014.2 |
| 20260904181646 | 86 | 326 | 3.0 | 9.0 | 0.00 | 0.00 | 0.36 | 77 | 1014.2 |
| 20260904181147 | 87 | 336 | 5.0 | 10.0 | 0.00 | 0.00 | 0.36 | 74 | 1014.6 |
| 20260904180647 | 87 | 353 | 3.0 | 9.0 | 0.00 | 0.00 | 0.36 | 75 | 1014.6 |
| 20260904180148 | 86 | 11 | 8.0 | 9.0 | 0.00 | 0.00 | 0.36 | 77 | 1014.6 |
| 20260904175647 | 86 | 346 | 6.0 | 9.0 | 0.00 | 0.00 | 0.36 | 76 | 1014.6 |
| 20260904175147 | 85 | 20 | 4.0 | 10.0 | 0.00 | 0.00 | 0.36 | 77 | 1014.6 |